Wind_Speed
25 24 23 23 21 20 19 19 19 19 17 16 17 17 14 13 13 12 12 13 13 14 14 13 12 12 11 7 9 11 14 15
26 22 22 22 22 21 21 21 21 20 18 17 16 17 16 16 16 17 17 15 14 13 13 13 12 11 10 9 13 16 19 19
26 24 19 22 23 21 21 20 21 22 20 19 19 18 19 21 21 20 16 16 15 14 14 14 13 13 13 14 16 19 22 23
28 24 25 22 23 23 23 22 22 22 21 21 21 21 23 24 24 21 17 16 17 16 17 17 17 18 18 19 21 22 23 23
29 23 23 25 24 23 23 24 23 24 23 22 24 24 24 25 24 21 18 17 18 18 19 20 21 22 22 24 26 27 26 26
24 23 25 26 25 26 25 25 24 26 25 24 25 26 25 26 25 22 20 19 21 21 22 23 24 25 26 27 28 28 29 28
25 25 26 28 29 29 28 28 27 27 28 27 26 27 27 27 27 25 23 23 24 24 25 27 28 30 32 34 35 34 33 33
25 26 25 28 29 30 30 30 29 29 30 29 27 29 29 28 27 26 25 26 26 27 30 32 34 35 37 38 39 39 40 41
24 24 24 26 26 29 29 30 30 29 30 30 29 31 32 31 29 28 28 29 31 33 35 36 37 38 39 39 40 41 42 43
30 26 25 26 26 29 30 31 30 30 30 32 32 33 34 34 33 33 33 34 35 36 38 40 41 42 42 42 41 42 44 46
29 29 28 28 30 31 32 32 32 33 34 34 33 33 36 38 38 38 39 39 40 42 43 45 46 45 45 45 45 46 47 50
29 30 32 33 34 36 36 36 36 37 36 36 37 38 40 41 42 43 44 45 47 48 48 49 49 47 49 49 49 51 52 54
31 33 36 38 36 38 40 41 40 39 39 39 40 42 43 43 45 46 48 49 51 51 52 51 51 51 51 52 53 55 55 56
30 32 37 38 38 40 42 42 43 43 42 43 42 43 45 46 47 49 52 54 55 55 55 55 56 54 54 57 57 57 56 56
32 34 35 40 40 42 41 44 46 47 45 46 46 45 46 49 52 54 56 59 59 59 60 60 59 59 59 60 60 59 58 56
31 33 36 42 44 44 45 47 50 51 50 49 49 49 52 54 57 59 62 63 64 64 62 61 62 61 61 60 61 60 58 58
36 37 38 38 40 46 49 52 56 58 55 54 54 55 57 59 62 64 63 64 63 64 63 62 62 61 60 59 57 58 58 57
40 42 43 46 46 48 50 54 59 61 61 61 60 61 63 64 64 60 62 63 63 64 62 62 60 60 58 55 53 52 50 50
45 49 51 54 55 57 58 54 60 63 64 64 64 64 66 64 59 58 59 61 61 61 59 58 58 59 58 57 53 50 49 48
51 56 58 63 65 63 66 67 62 68 69 64 62 62 63 60 59 59 59 58 57 57 58 59 60 59 59 53 51 50 49 49
Wind_Direction
291 290 286 292 285 281 280 281 279 276 271 264 257 254 249 249 249 245 243 241 240 242 247 248 252 254 262 281 288 300 312 312
293 288 286 294 283 284 280 278 275 267 267 263 254 250 249 250 248 242 238 241 246 251 256 259 257 258 261 269 288 300 302 298
288 284 296 291 284 281 279 279 273 269 267 265 257 252 252 254 252 251 254 257 260 264 266 270 273 270 271 283 289 291 289 295
284 282 291 286 280 278 277 274 270 264 263 263 261 254 253 258 260 259 260 265 270 271 271 270 270 272 275 279 281 283 285 290
275 281 290 282 277 274 274 269 264 263 261 262 261 260 261 263 264 265 265 270 272 274 274 274 274 274 276 279 283 288 289 292
265 279 280 282 281 277 272 267 264 259 258 260 261 260 261 263 265 264 264 263 267 272 275 277 278 280 281 282 284 285 287 288
268 281 285 284 281 277 274 270 266 262 257 257 259 260 261 262 266 267 269 270 272 275 278 280 283 286 286 286 286 288 289 288
269 283 280 280 281 279 278 272 267 265 263 261 262 263 264 264 266 269 269 271 273 274 273 277 280 281 282 283 284 285 285 285
270 277 279 273 272 274 273 270 269 268 267 266 265 264 263 264 266 264 265 269 271 273 276 278 278 280 281 280 281 282 283 284
268 275 274 270 269 267 267 266 266 265 264 266 265 265 265 267 264 263 265 266 269 273 276 279 280 280 281 282 284 286 288 290
265 267 267 264 264 264 263 262 262 262 262 262 262 265 267 267 267 267 268 271 274 277 280 282 283 285 286 287 288 289 288 288
255 258 265 264 258 261 263 264 264 263 264 264 266 267 269 270 271 271 272 273 275 277 280 282 284 286 287 290 291 292 293 292
255 253 256 257 258 260 263 263 263 265 266 266 269 270 271 271 272 274 275 277 278 280 281 282 284 286 288 290 292 291 291 290
259 256 256 254 259 260 262 262 265 265 267 268 267 268 270 272 274 278 278 278 279 280 283 284 285 287 289 290 290 290 291 290
257 253 251 249 253 257 260 263 265 266 266 267 269 271 274 276 275 275 276 277 278 280 282 284 288 291 291 291 292 291 290 288
260 256 254 252 254 258 259 262 265 266 267 268 270 272 272 273 273 274 276 279 280 282 284 285 287 289 290 291 291 290 288 287
270 265 260 259 258 257 258 260 262 264 263 263 265 265 266 268 271 274 279 280 282 284 285 285 286 288 288 288 288 288 288 288
272 267 263 262 262 262 263 263 261 264 266 263 261 261 263 267 272 276 281 282 282 282 284 286 285 286 287 290 291 291 289 287
266 264 263 264 265 265 265 260 267 264 266 267 265 267 269 270 270 276 279 281 280 281 282 284 285 285 285 286 288 286 279 284
258 261 263 259 259 258 260 264 260 265 269 266 266 267 268 270 277 275 276 278 281 283 282 282 282 283 286 287 283 283 277 284
Height
5843 5842 5840 5841 5840 5839 5839 5838 5838 5838 5837 5836 5835 5836 5837 5838 5838 5836 5836 5836 5835 5834 5834 5834 5834 5834 5834 5834 5833 5833 5833 5832
5839 5838 5838 5838 5836 5836 5836 5835 5835 5834 5834 5834 5833 5834 5835 5835 5835 5833 5832 5832 5831 5831 5831 5832 5832 5832 5832 5831 5831 5830 5828 5828
5835 5834 5834 5834 5833 5832 5832 5831 5832 5832 5832 5832 5831 5831 5832 5831 5831 5830 5829 5829 5829 5829 5829 5829 5829 5829 5829 5828 5828 5827 5826 5826
5830 5829 5829 5829 5829 5828 5828 5827 5827 5828 5828 5829 5828 5827 5827 5828 5827 5827 5826 5826 5826 5826 5826 5825 5825 5826 5825 5825 5824 5823 5823 5823
5826 5825 5824 5824 5823 5823 5822 5822 5821 5823 5824 5824 5824 5824 5824 5824 5823 5823 5822 5822 5822 5822 5822 5822 5821 5821 5821 5821 5820 5820 5819 5818
5821 5821 5820 5819 5818 5818 5817 5816 5816 5817 5817 5817 5818 5819 5818 5817 5817 5817 5816 5816 5817 5816 5816 5816 5816 5815 5815 5814 5814 5813 5812 5812
5816 5816 5816 5815 5814 5813 5812 5811 5810 5810 5811 5811 5811 5811 5810 5810 5810 5810 5810 5810 5811 5811 5811 5810 5810 5809 5809 5808 5808 5807 5806 5805
5810 5810 5808 5809 5808 5808 5807 5806 5806 5806 5806 5806 5805 5806 5805 5805 5804 5804 5804 5804 5803 5803 5803 5803 5804 5803 5802 5802 5801 5800 5799 5798
5803 5802 5802 5800 5801 5800 5800 5800 5800 5801 5801 5801 5799 5798 5798 5798 5798 5797 5797 5796 5796 5795 5795 5795 5794 5793 5793 5793 5792 5791 5789 5788
5794 5794 5794 5794 5794 5793 5793 5793 5792 5793 5793 5793 5793 5793 5793 5793 5792 5791 5790 5789 5788 5787 5786 5786 5786 5784 5784 5783 5782 5781 5781 5779
5789 5788 5786 5785 5785 5785 5785 5784 5784 5784 5784 5784 5784 5785 5785 5784 5784 5783 5782 5781 5779 5778 5776 5776 5774 5773 5772 5772 5771 5770 5769 5767
5781 5779 5778 5777 5776 5776 5776 5776 5775 5775 5775 5776 5776 5776 5775 5774 5773 5773 5772 5771 5768 5766 5765 5764 5763 5761 5760 5759 5759 5758 5755 5754
5771 5773 5770 5768 5768 5768 5767 5766 5766 5766 5766 5767 5768 5767 5765 5764 5762 5762 5761 5759 5757 5755 5753 5751 5750 5749 5748 5746 5744 5743 5742 5741
5766 5764 5762 5761 5760 5758 5758 5758 5757 5757 5757 5757 5756 5755 5755 5754 5752 5752 5750 5748 5745 5743 5740 5738 5737 5737 5736 5733 5731 5730 5728 5727
5755 5755 5753 5752 5750 5749 5748 5747 5746 5746 5746 5745 5745 5745 5744 5742 5740 5738 5736 5734 5733 5731 5728 5725 5722 5721 5721 5719 5717 5716 5714 5713
5747 5745 5745 5742 5739 5738 5737 5736 5733 5732 5733 5733 5733 5732 5731 5729 5727 5726 5724 5722 5721 5718 5716 5713 5710 5708 5706 5705 5702 5701 5699 5698
5736 5736 5735 5733 5731 5728 5726 5723 5720 5719 5718 5719 5718 5717 5715 5714 5713 5712 5711 5709 5708 5707 5704 5701 5697 5695 5692 5690 5687 5685 5685 5683
5726 5724 5722 5720 5719 5716 5714 5710 5708 5707 5705 5704 5703 5702 5701 5701 5700 5700 5699 5698 5696 5694 5691 5689 5686 5683 5680 5677 5674 5672 5670 5668
5714 5710 5708 5706 5704 5702 5701 5701 5696 5693 5692 5691 5690 5690 5689 5687 5686 5685 5684 5684 5682 5680 5677 5674 5672 5670 5667 5665 5662 5660 5658 5656
5701 5698 5696 5689 5686 5687 5687 5685 5682 5679 5679 5677 5676 5675 5675 5676 5674 5673 5670 5668 5666 5664 5662 5659 5657 5655 5653 5652 5650 5649 5647 5644